Weather History for KCFV - February, 2013

Change the Weather History Date:

Monday, February 4, 2013

  Actual Average Record
Temperature  
Mean Temperature 48 °F -  
Max Temperature 61 °F 45 °F 75 °F (2008)
Min Temperature 34 °F 26 °F -4 °F (2011)
Degree Days  
Heating Degree Days 18    
Moisture  
Dew Point 32 °F    
Average Humidity 51    
Maximum Humidity 82    
Minimum Humidity 35    
Precipitation  
Precipitation 0.00 in - - ()
Sea Level Pressure  
Sea Level Pressure 29.90 in    
Wind  
Wind Speed 9 mph (NNW)    
Max Wind Speed 14 mph    
Max Gust Speed 22 mph    
Visibility 10 miles    
Events      
Averages and records for this station are not official NWS values.
T = Trace of Precipitation, MM = Missing Value Source: NWS Daily Summary

Daily Weather History Graph

Daily Weather History Graph

Search for Another Location

Airport or City:

Trip Planner

Search our weather history database for the weather conditions in past years. The results will help you decide how hot, cold, wet, or windy it might be!

Date:

Astronomy

Feb. 04, 2013 Rise Set
Actual Time 7:22 AM CST 5:50 PM CST
Civil Twilight 6:54 AM CST 6:18 PM CST
Nautical Twilight 6:24 AM CST 6:48 PM CST
Astronomical Twilight 5:53 AM CST 7:19 PM CST
Moon 1:57 AM CST (2/4) 12:17 PM CST (2/4)
Length of Visible Light 11h 23m
Length of Day
10h 28m
Last Quarter, 37% of the Moon is Illuminated
Feb 4
Last Quarter
Feb 10
New
Feb 17
First Quarter
Feb 25
Full
Mar 4
Last Quarter

Hourly Weather History & Observations

Time (CST) Temp. Windchill Dew Point Humidity Pressure Visibility Wind Dir Wind Speed Gust Speed Precip Events Conditions
12:52 AM 50.0 °F - 28.0 °F 43% 29.90 in 10.0 mi South 11.5 mph - N/A   Clear
1:52 AM 51.1 °F - 28.0 °F 41% 29.88 in 10.0 mi South 13.8 mph - N/A   Clear
2:52 AM 50.0 °F - 28.9 °F 44% 29.86 in 10.0 mi South 12.7 mph - N/A   Clear
5:52 AM 50.0 °F - 30.0 °F 46% 29.82 in 10.0 mi SSW 12.7 mph - N/A   Clear
6:52 AM 48.0 °F - 30.9 °F 52% 29.84 in 10.0 mi SSW 8.1 mph - N/A   Clear
7:52 AM 45.0 °F 42.6 °F 30.9 °F 58% 29.86 in 10.0 mi South 4.6 mph - N/A   Clear
8:52 AM 50.0 °F - 34.0 °F 54% 29.88 in 10.0 mi SW 3.5 mph - N/A   Clear
9:52 AM 53.1 °F - 33.1 °F 47% 29.88 in 10.0 mi Calm Calm - N/A   Clear
10:52 AM 57.0 °F - 33.1 °F 40% 29.89 in 10.0 mi NNW 6.9 mph - N/A   Clear
11:52 AM 57.9 °F - 33.1 °F 39% 29.88 in 10.0 mi Variable 5.8 mph - N/A   Clear
12:52 PM 61.0 °F - 33.1 °F 35% 29.87 in 10.0 mi North 11.5 mph 16.1 mph N/A   Clear
1:52 PM 61.0 °F - 35.1 °F 38% 29.87 in 10.0 mi NNW 13.8 mph 21.9 mph N/A   Clear
2:52 PM 61.0 °F - 34.0 °F 36% 29.87 in 10.0 mi North 11.5 mph - N/A   Clear
3:52 PM 60.1 °F - 33.1 °F 36% 29.87 in 10.0 mi North 11.5 mph - N/A   Clear
4:52 PM 57.9 °F - 33.1 °F 39% 29.89 in 10.0 mi North 9.2 mph - N/A   Clear
5:52 PM 51.1 °F - 33.1 °F 50% 29.91 in 10.0 mi North 8.1 mph - N/A   Clear
6:52 PM 48.0 °F - 33.1 °F 56% 29.93 in 10.0 mi North 9.2 mph - N/A   Clear
7:52 PM 43.0 °F 38.2 °F 33.1 °F 68% 29.95 in 10.0 mi NNE 8.1 mph - N/A   Clear
8:52 PM 41.0 °F 39.0 °F 32.0 °F 70% 29.97 in 10.0 mi North 3.5 mph - N/A   Clear
9:52 PM 37.9 °F 33.5 °F 30.9 °F 76% 29.99 in 10.0 mi North 5.8 mph - N/A   Clear
10:52 PM 34.0 °F 28.8 °F 28.0 °F 79% 30.00 in 10.0 mi North 5.8 mph - N/A   Clear
11:52 PM 34.0 °F 31.0 °F 28.9 °F 82% 29.99 in 10.0 mi North 3.5 mph - N/A   Clear